owner,sensor,date,latitude,longitude,vertical_datum,wind_speed,wind_to_direction,wind_speed_of_gust,qcFlag 
TABS,ioos:station:wmo:42047:1,2013-07-01T00:00:00Z,27.8966,-93.5973,4.0,3.58097752,352.4580294,3.85,'11111222,11111222,11111222' 
TABS,ioos:station:wmo:42047:1,2013-07-01T00:30:00Z,27.8966,-93.5973,4.0,3.244102341,338.1000414,3.8,'11111222,11111222,11111222' 
TABS,ioos:station:wmo:42047:1,2013-07-01T01:00:00Z,27.8966,-93.5973,4.0,2.656332058,336.716287,3.16,'11111222,11111222,11111222' 
TABS,ioos:station:wmo:42047:1,2013-07-01T01:30:00Z,27.8966,-93.5973,4.0,2.162059204,344.1636347,2.76,'11111222,11111222,11111222' 
TABS,ioos:station:wmo:42047:1,2013-07-01T02:00:00Z,27.8966,-93.5973,4.0,1.484890568,344.3724423,1.95,'11111222,11111222,11111222' 
TABS,ioos:station:wmo:42047:1,2013-07-01T02:30:00Z,27.8966,-93.5973,4.0,1.31041978,15.94514816,1.59,'11111222,11111222,11111222' 
TABS,ioos:station:wmo:42047:1,2013-07-01T03:00:00Z,27.8966,-93.5973,4.0,1.220655562,358.1219165,1.58,'11111222,11111222,11111222' 
TABS,ioos:station:wmo:42047:1,2013-07-01T03:30:00Z,27.8966,-93.5973,4.0,0.595399026,7.721597285,0.86,'11111222,11111222,11111222' 
TABS,ioos:station:wmo:42047:1,2013-07-01T04:00:00Z,27.8966,-93.5973,4.0,1.120892502,195.5242852,1.58,'11111222,11111222,11111222' 
TABS,ioos:station:wmo:42047:1,2013-07-01T04:30:00Z,27.8966,-93.5973,4.0,1.541590088,177.3976543,1.79,'11111222,11111222,11111222' 
TABS,ioos:station:wmo:42047:1,2013-07-01T05:00:00Z,27.8966,-93.5973,4.0,1.705197936,166.7789611,2.03,'11111222,11111222,11111222' 
TABS,ioos:station:wmo:42047:1,2013-07-01T05:30:00Z,27.8966,-93.5973,4.0,1.808009956,143.3205387,2.15,'11111222,11111222,11111222' 
TABS,ioos:station:wmo:42047:1,2013-07-01T06:00:00Z,27.8966,-93.5973,4.0,3.012806001,187.0544457,3.45,'11111222,11111222,11111222' 
TABS,ioos:station:wmo:42047:1,2013-07-01T06:30:00Z,27.8966,-93.5973,4.0,4.488440709,208.6207909,5.32,'11111222,11111222,11111222' 
TABS,ioos:station:wmo:42047:1,2013-07-01T07:00:00Z,27.8966,-93.5973,4.0,5.345774032,222.0430908,6.3,'11111222,11111222,11111222' 
TABS,ioos:station:wmo:42047:1,2013-07-01T07:30:00Z,27.8966,-93.5973,4.0,5.478101861,241.1892736,6.28,'11111222,11111222,11111222' 
TABS,ioos:station:wmo:42047:1,2013-07-01T08:00:00Z,27.8966,-93.5973,4.0,5.092739931,237.1837333,5.95,'11111222,11111222,11111222' 
TABS,ioos:station:wmo:42047:1,2013-07-01T08:30:00Z,27.8966,-93.5973,4.0,5.205660381,243.7795682,6.38,'11111222,11111222,11111222' 
TABS,ioos:station:wmo:42047:1,2013-07-01T09:00:00Z,27.8966,-93.5973,4.0,5.151194036,248.1160235,6.01,'11111222,11111222,11111222' 
TABS,ioos:station:wmo:42047:1,2013-07-01T09:30:00Z,27.8966,-93.5973,4.0,4.754219179,257.9810257,5.85,'11111222,11111222,11111222' 
TABS,ioos:station:wmo:42047:1,2013-07-01T10:00:00Z,27.8966,-93.5973,4.0,4.866836755,257.4201446,6.0,'11111222,11111222,11111222' 
TABS,ioos:station:wmo:42047:1,2013-07-01T10:30:00Z,27.8966,-93.5973,4.0,4.861481256,271.4144199,6.18,'11111222,11111222,11111222' 
TABS,ioos:station:wmo:42047:1,2013-07-01T11:00:00Z,27.8966,-93.5973,4.0,4.863342472,274.2450878,5.74,'11111222,11111222,11111222' 
TABS,ioos:station:wmo:42047:1,2013-07-01T11:30:00Z,27.8966,-93.5973,4.0,4.843397568,274.2626012,5.42,'11111222,11111222,11111222' 
TABS,ioos:station:wmo:42047:1,2013-07-01T12:00:00Z,27.8966,-93.5973,4.0,4.109123994,286.9796711,4.88,'11111222,11111222,11111222' 
TABS,ioos:station:wmo:42047:1,2013-07-01T12:30:00Z,27.8966,-93.5973,4.0,4.443028247,288.6388039,5.01,'11111222,11111222,11111222' 
TABS,ioos:station:wmo:42047:1,2013-07-01T13:00:00Z,27.8966,-93.5973,4.0,4.133860181,292.4705495,4.83,'11111222,11111222,11111222' 
TABS,ioos:station:wmo:42047:1,2013-07-01T13:30:00Z,27.8966,-93.5973,4.0,3.442237644,311.7025561,4.08,'11111222,11111222,11111222' 
TABS,ioos:station:wmo:42047:1,2013-07-01T14:00:00Z,27.8966,-93.5973,4.0,2.475823095,299.2568346,3.12,'11111222,11111222,11111222' 
TABS,ioos:station:wmo:42047:1,2013-07-01T14:30:00Z,27.8966,-93.5973,4.0,3.148412298,274.1893331,3.66,'11111222,11111222,11111222' 
TABS,ioos:station:wmo:42047:1,2013-07-01T15:00:00Z,27.8966,-93.5973,4.0,3.058970415,277.891684,3.6,'11111222,11111222,11111222' 
TABS,ioos:station:wmo:42047:1,2013-07-01T15:30:00Z,27.8966,-93.5973,4.0,2.965754541,277.5563264,3.4,'11111222,11111222,11111222' 
TABS,ioos:station:wmo:42047:1,2013-07-01T16:00:00Z,27.8966,-93.5973,4.0,2.889048286,285.0463566,3.42,'11111222,11111222,11111222' 
TABS,ioos:station:wmo:42047:1,2013-07-01T16:30:00Z,27.8966,-93.5973,4.0,2.452039967,290.2825117,3.32,'11111222,11111222,11111222' 
TABS,ioos:station:wmo:42047:1,2013-07-01T17:00:00Z,27.8966,-93.5973,4.0,3.130654884,288.4349057,4.1,'11111222,11111222,11111222' 
TABS,ioos:station:wmo:42047:1,2013-07-01T17:30:00Z,27.8966,-93.5973,4.0,3.262207841,357.8916992,4.56,'11111222,11111222,11111222' 
TABS,ioos:station:wmo:42047:1,2013-07-01T18:00:00Z,27.8966,-93.5973,4.0,4.570951761,27.34960137,5.48,'11111222,11111222,11111222' 
TABS,ioos:station:wmo:42047:1,2013-07-01T18:30:00Z,27.8966,-93.5973,4.0,5.171769523,28.1504123,6.16,'11111222,11111222,11111222' 
TABS,ioos:station:wmo:42047:1,2013-07-01T19:00:00Z,27.8966,-93.5973,4.0,5.213108478,24.59831863,6.37,'11111222,11111222,11111222' 
TABS,ioos:station:wmo:42047:1,2013-07-01T19:30:00Z,27.8966,-93.5973,4.0,5.856722633,35.96953851,7.14,'11111222,11111222,11111222' 
TABS,ioos:station:wmo:42047:1,2013-07-01T20:00:00Z,27.8966,-93.5973,4.0,5.840796179,29.76893581,7.04,'11111222,11111222,11111222' 
TABS,ioos:station:wmo:42047:1,2013-07-01T20:30:00Z,27.8966,-93.5973,4.0,5.474961187,33.9800273,6.58,'11111222,11111222,11111222' 
TABS,ioos:station:wmo:42047:1,2013-07-01T21:00:00Z,27.8966,-93.5973,4.0,5.795187659,32.4557403,6.72,'11111222,11111222,11111222' 
TABS,ioos:station:wmo:42047:1,2013-07-01T21:30:00Z,27.8966,-93.5973,4.0,6.506996235,26.76167008,7.91,'11111222,11111222,11111222' 
TABS,ioos:station:wmo:42047:1,2013-07-01T22:00:00Z,27.8966,-93.5973,4.0,6.92059246,28.00890075,8.74,'11111222,11111222,11111222' 
TABS,ioos:station:wmo:42047:1,2013-07-01T22:30:00Z,27.8966,-93.5973,4.0,6.727414065,19.53898796,7.89,'11111222,11111222,11111222' 
TABS,ioos:station:wmo:42047:1,2013-07-01T23:00:00Z,27.8966,-93.5973,4.0,6.408572384,22.28261273,7.75,'11111222,11111222,11111222' 
TABS,ioos:station:wmo:42047:1,2013-07-01T23:30:00Z,27.8966,-93.5973,4.0,6.52518199,28.76435319,7.68,'11111222,11111222,11111222' 
TABS,ioos:station:wmo:42047:1,2013-07-02T00:00:00Z,27.8966,-93.5973,4.0,6.83749223,34.57296777,8.44,'11111222,11111222,11111222' 
TABS,ioos:station:wmo:42047:1,2013-07-02T00:30:00Z,27.8966,-93.5973,4.0,6.348354117,29.22964842,7.84,'11111222,11111222,11111222' 
TABS,ioos:station:wmo:42047:1,2013-07-02T01:00:00Z,27.8966,-93.5973,4.0,5.481788029,22.07287333,6.73,'11111222,11111222,11111222' 
TABS,ioos:station:wmo:42047:1,2013-07-02T01:30:00Z,27.8966,-93.5973,4.0,5.625975471,26.3825991,6.38,'11111222,11111222,11111222' 
TABS,ioos:station:wmo:42047:1,2013-07-02T02:00:00Z,27.8966,-93.5973,4.0,5.132182771,14.44215344,6.04,'11111222,11111222,11111222' 
TABS,ioos:station:wmo:42047:1,2013-07-02T02:30:00Z,27.8966,-93.5973,4.0,4.852473596,26.03672308,6.11,'11111222,11111222,11111222' 
TABS,ioos:station:wmo:42047:1,2013-07-02T03:00:00Z,27.8966,-93.5973,4.0,4.974374333,25.22537625,6.77,'11111222,11111222,11111222' 
TABS,ioos:station:wmo:42047:1,2013-07-02T03:30:00Z,27.8966,-93.5973,4.0,5.76086799,42.6078904,6.91,'11111222,11111222,11111222' 
TABS,ioos:station:wmo:42047:1,2013-07-02T04:00:00Z,27.8966,-93.5973,4.0,5.909018531,64.64885035,7.05,'11111222,11111222,11111222' 
TABS,ioos:station:wmo:42047:1,2013-07-02T04:30:00Z,27.8966,-93.5973,4.0,5.415690168,47.76868845,6.69,'11111222,11111222,11111222' 
TABS,ioos:station:wmo:42047:1,2013-07-02T05:00:00Z,27.8966,-93.5973,4.0,4.334974048,41.63323152,5.93,'11111222,11111222,11111222' 
TABS,ioos:station:wmo:42047:1,2013-07-02T05:30:00Z,27.8966,-93.5973,4.0,4.493250494,38.22138447,6.23,'11111222,11111222,11111222' 
TABS,ioos:station:wmo:42047:1,2013-07-02T06:00:00Z,27.8966,-93.5973,4.0,3.956008089,53.013902,4.98,'11111222,11111222,11111222' 
TABS,ioos:station:wmo:42047:1,2013-07-02T06:30:00Z,27.8966,-93.5973,4.0,4.025680067,46.91218506,5.3,'11111222,11111222,11111222' 
TABS,ioos:station:wmo:42047:1,2013-07-02T07:00:00Z,27.8966,-93.5973,4.0,3.834018779,52.95043915,5.57,'11111222,11111222,11111222' 
TABS,ioos:station:wmo:42047:1,2013-07-02T07:30:00Z,27.8966,-93.5973,4.0,3.064375956,35.97209247,3.9,'11111222,11111222,11111222' 
TABS,ioos:station:wmo:42047:1,2013-07-02T08:00:00Z,27.8966,-93.5973,4.0,2.821435805,8.560659093,3.71,'11111222,11111222,11111222' 
TABS,ioos:station:wmo:42047:1,2013-07-02T08:30:00Z,27.8966,-93.5973,4.0,3.564168907,12.4762591,4.52,'11111222,11111222,11111222' 
TABS,ioos:station:wmo:42047:1,2013-07-02T09:00:00Z,27.8966,-93.5973,4.0,2.782373088,27.85417349,4.36,'11111222,11111222,11111222' 
TABS,ioos:station:wmo:42047:1,2013-07-02T09:30:00Z,27.8966,-93.5973,4.0,2.953675676,17.94395226,3.8,'11111222,11111222,11111222' 
TABS,ioos:station:wmo:42047:1,2013-07-02T10:00:00Z,27.8966,-93.5973,4.0,2.811547617,8.590994884,3.44,'11111222,11111222,11111222' 
TABS,ioos:station:wmo:42047:1,2013-07-02T10:30:00Z,27.8966,-93.5973,4.0,3.429650128,8.720528717,4.59,'11111222,11111222,11111222' 
TABS,ioos:station:wmo:42047:1,2013-07-02T11:00:00Z,27.8966,-93.5973,4.0,4.115385766,22.57676374,5.37,'11111222,11111222,11111222' 
TABS,ioos:station:wmo:42047:1,2013-07-02T11:30:00Z,27.8966,-93.5973,4.0,3.425799177,27.08835347,4.56,'11111222,11111222,11111222' 
TABS,ioos:station:wmo:42047:1,2013-07-02T12:00:00Z,27.8966,-93.5973,4.0,3.406581865,15.66791332,4.24,'11111222,11111222,11111222' 
TABS,ioos:station:wmo:42047:1,2013-07-02T12:30:00Z,27.8966,-93.5973,4.0,2.969393878,18.2516427,3.74,'11111222,11111222,11111222' 
TABS,ioos:station:wmo:42047:1,2013-07-02T13:00:00Z,27.8966,-93.5973,4.0,6.011530587,34.90583917,7.06,'11111222,11111222,11111222' 
TABS,ioos:station:wmo:42047:1,2013-07-02T13:30:00Z,27.8966,-93.5973,4.0,4.742847246,23.48384992,5.74,'11111222,11111222,11111222' 
TABS,ioos:station:wmo:42047:1,2013-07-02T14:00:00Z,27.8966,-93.5973,4.0,4.06162529,19.86232859,5.61,'11111222,11111222,11111222' 
TABS,ioos:station:wmo:42047:1,2013-07-02T14:30:00Z,27.8966,-93.5973,4.0,2.605091169,6.169950208,3.67,'11111222,11111222,11111222' 
TABS,ioos:station:wmo:42047:1,2013-07-02T15:00:00Z,27.8966,-93.5973,4.0,6.375280386,8.206131462,7.61,'11111222,11111222,11111222' 
TABS,ioos:station:wmo:42047:1,2013-07-02T15:30:00Z,27.8966,-93.5973,4.0,6.766343178,3.982835439,8.03,'11111222,11111222,11111222' 
TABS,ioos:station:wmo:42047:1,2013-07-02T16:00:00Z,27.8966,-93.5973,4.0,6.540221709,15.2471891,8.1,'11111222,11111222,11111222' 
TABS,ioos:station:wmo:42047:1,2013-07-02T16:30:00Z,27.8966,-93.5973,4.0,6.423153431,17.67305503,7.66,'11111222,11111222,11111222' 
TABS,ioos:station:wmo:42047:1,2013-07-02T17:00:00Z,27.8966,-93.5973,4.0,6.31404783,16.94236069,7.87,'11111222,11111222,11111222' 
TABS,ioos:station:wmo:42047:1,2013-07-02T17:30:00Z,27.8966,-93.5973,4.0,6.30518041,15.35848122,7.17,'11111222,11111222,11111222' 
TABS,ioos:station:wmo:42047:1,2013-07-02T18:00:00Z,27.8966,-93.5973,4.0,5.119628893,6.166943036,6.58,'11111222,11111222,11111222' 
TABS,ioos:station:wmo:42047:1,2013-07-02T18:30:00Z,27.8966,-93.5973,4.0,5.785533683,23.6404532,6.66,'11111222,11111222,11111222' 
TABS,ioos:station:wmo:42047:1,2013-07-02T19:00:00Z,27.8966,-93.5973,4.0,5.054305096,32.55784915,5.97,'11111222,11111222,11111222' 
TABS,ioos:station:wmo:42047:1,2013-07-02T19:30:00Z,27.8966,-93.5973,4.0,4.85707731,31.52993758,6.03,'11111222,11111222,11111222' 
TABS,ioos:station:wmo:42047:1,2013-07-02T20:00:00Z,27.8966,-93.5973,4.0,4.463272342,26.90923725,5.74,'11111222,11111222,11111222' 
TABS,ioos:station:wmo:42047:1,2013-07-02T20:30:00Z,27.8966,-93.5973,4.0,4.217511114,27.23309622,5.21,'11111222,11111222,11111222' 
TABS,ioos:station:wmo:42047:1,2013-07-02T21:00:00Z,27.8966,-93.5973,4.0,4.651720112,32.80154487,5.93,'11111222,11111222,11111222' 
TABS,ioos:station:wmo:42047:1,2013-07-02T21:30:00Z,27.8966,-93.5973,4.0,4.335262391,43.97165093,5.45,'11111222,11111222,11111222' 
TABS,ioos:station:wmo:42047:1,2013-07-02T22:00:00Z,27.8966,-93.5973,4.0,4.224050189,33.8026389,5.11,'11111222,11111222,11111222' 
TABS,ioos:station:wmo:42047:1,2013-07-02T22:30:00Z,27.8966,-93.5973,4.0,3.612215387,28.97729476,5.22,'11111222,11111222,11111222' 
TABS,ioos:station:wmo:42047:1,2013-07-02T23:00:00Z,27.8966,-93.5973,4.0,3.466020773,30.70832404,4.27,'11111222,11111222,11111222' 
TABS,ioos:station:wmo:42047:1,2013-07-02T23:30:00Z,27.8966,-93.5973,4.0,3.292369967,27.88794818,4.35,'11111222,11111222,11111222' 
TABS,ioos:station:wmo:42047:1,2013-07-03T00:00:00Z,27.8966,-93.5973,4.0,3.429125253,32.25305278,4.65,'11111222,11111222,11111222' 
TABS,ioos:station:wmo:42047:1,2013-07-03T00:30:00Z,27.8966,-93.5973,4.0,2.502818411,16.47972429,3.88,'11111222,11111222,11111222' 
TABS,ioos:station:wmo:42047:1,2013-07-03T01:00:00Z,27.8966,-93.5973,4.0,2.881735588,24.6082348,3.73,'11111222,11111222,11111222' 
TABS,ioos:station:wmo:42047:1,2013-07-03T01:30:00Z,27.8966,-93.5973,4.0,2.993409427,21.76560485,3.97,'11111222,11111222,11111222' 
TABS,ioos:station:wmo:42047:1,2013-07-03T02:00:00Z,27.8966,-93.5973,4.0,2.756972978,34.20853756,4.07,'11111222,11111222,11111222' 
TABS,ioos:station:wmo:42047:1,2013-07-03T02:30:00Z,27.8966,-93.5973,4.0,2.762788446,38.23846161,3.74,'11111222,11111222,11111222' 
TABS,ioos:station:wmo:42047:1,2013-07-03T03:00:00Z,27.8966,-93.5973,4.0,2.163631207,32.73493926,3.05,'11111222,11111222,11111222' 
TABS,ioos:station:wmo:42047:1,2013-07-03T03:30:00Z,27.8966,-93.5973,4.0,2.554407955,40.23605376,3.47,'11111222,11111222,11111222' 
TABS,ioos:station:wmo:42047:1,2013-07-03T04:00:00Z,27.8966,-93.5973,4.0,2.828161947,21.5754277,4.01,'11111222,11111222,11111222' 
TABS,ioos:station:wmo:42047:1,2013-07-03T04:30:00Z,27.8966,-93.5973,4.0,2.52491584,35.3263515,3.4,'11111222,11111222,11111222' 
TABS,ioos:station:wmo:42047:1,2013-07-03T05:00:00Z,27.8966,-93.5973,4.0,2.026252699,35.96471044,2.44,'11111222,11111222,11111222' 
TABS,ioos:station:wmo:42047:1,2013-07-03T05:30:00Z,27.8966,-93.5973,4.0,2.376068181,37.30365059,3.48,'11111222,11111222,11111222' 
TABS,ioos:station:wmo:42047:1,2013-07-03T06:00:00Z,27.8966,-93.5973,4.0,2.196929676,59.3489828,3.02,'11111222,11111222,11111222' 
TABS,ioos:station:wmo:42047:1,2013-07-03T06:30:00Z,27.8966,-93.5973,4.0,2.169331694,55.13746446,2.76,'11111222,11111222,11111222' 
TABS,ioos:station:wmo:42047:1,2013-07-03T07:00:00Z,27.8966,-93.5973,4.0,0.971287805,61.05963406,2.17,'11111222,11111222,11111222' 
TABS,ioos:station:wmo:42047:1,2013-07-03T07:30:00Z,27.8966,-93.5973,4.0,1.529705854,11.30969557,2.09,'11111222,11111222,11111222' 
TABS,ioos:station:wmo:42047:1,2013-07-03T08:00:00Z,27.8966,-93.5973,4.0,1.800249983,23.57444062,2.69,'11111222,11111222,11111222' 
TABS,ioos:station:wmo:42047:1,2013-07-03T08:30:00Z,27.8966,-93.5973,4.0,1.212641744,3.782426142,2.32,'11111222,11111222,11111222' 
TABS,ioos:station:wmo:42047:1,2013-07-03T09:00:00Z,27.8966,-93.5973,4.0,2.460081299,359.5339815,3.68,'11111222,11144222,11111222' 
TABS,ioos:station:wmo:42047:1,2013-07-03T09:30:00Z,27.8966,-93.5973,4.0,2.488875248,342.2200787,3.77,'11111222,11111222,11111222' 
TABS,ioos:station:wmo:42047:1,2013-07-03T10:00:00Z,27.8966,-93.5973,4.0,2.599249892,350.0301409,3.66,'11111222,11111222,11111222' 
TABS,ioos:station:wmo:42047:1,2013-07-03T10:30:00Z,27.8966,-93.5973,4.0,3.535109616,3.080718223,4.24,'11111222,11111222,11111222' 
TABS,ioos:station:wmo:42047:1,2013-07-03T11:00:00Z,27.8966,-93.5973,4.0,3.662308015,339.0409533,4.48,'11111222,11111222,11111222' 
TABS,ioos:station:wmo:42047:1,2013-07-03T11:30:00Z,27.8966,-93.5973,4.0,3.776413643,356.6600646,5.19,'11111222,11111222,11111222' 
TABS,ioos:station:wmo:42047:1,2013-07-03T12:00:00Z,27.8966,-93.5973,4.0,5.050346523,9.573995038,6.43,'11111222,11111222,11111222' 
TABS,ioos:station:wmo:42047:1,2013-07-03T12:30:00Z,27.8966,-93.5973,4.0,4.368065934,322.81517,6.31,'11111222,11111222,11111222' 
TABS,ioos:station:wmo:42047:1,2013-07-03T13:00:00Z,27.8966,-93.5973,4.0,3.384981536,350.648797,5.5,'11111222,11111222,11111222' 
TABS,ioos:station:wmo:42047:1,2013-07-03T13:30:00Z,27.8966,-93.5973,4.0,4.420882265,18.59863085,6.42,'11111222,11111222,11111222' 
TABS,ioos:station:wmo:42047:1,2013-07-03T14:00:00Z,27.8966,-93.5973,4.0,4.449292079,7.619944175,5.59,'11111222,11111222,11111222' 
TABS,ioos:station:wmo:42047:1,2013-07-03T14:30:00Z,27.8966,-93.5973,4.0,5.557877293,8.275663016,6.84,'11111222,11111222,11111222' 
TABS,ioos:station:wmo:42047:1,2013-07-03T15:00:00Z,27.8966,-93.5973,4.0,5.873074152,1.853686181,7.51,'11111222,11111222,11111222' 
TABS,ioos:station:wmo:42047:1,2013-07-03T15:30:00Z,27.8966,-93.5973,4.0,5.788307179,4.55791292,6.64,'11111222,11111222,11111222' 
TABS,ioos:station:wmo:42047:1,2013-07-03T16:00:00Z,27.8966,-93.5973,4.0,5.936606775,10.87435547,7.01,'11111222,11111222,11111222' 
TABS,ioos:station:wmo:42047:1,2013-07-03T16:30:00Z,27.8966,-93.5973,4.0,6.287742043,38.21834249,6.88,'11111222,11111222,11111222' 
TABS,ioos:station:wmo:42047:1,2013-07-03T17:00:00Z,27.8966,-93.5973,4.0,5.315947705,15.60463541,6.22,'11111222,11111222,11111222' 
TABS,ioos:station:wmo:42047:1,2013-07-03T17:30:00Z,27.8966,-93.5973,4.0,6.133653071,24.97712196,7.53,'11111222,11111222,11111222' 
TABS,ioos:station:wmo:42047:1,2013-07-03T18:00:00Z,27.8966,-93.5973,4.0,6.010931708,24.26224761,7.31,'11111222,11111222,11111222' 
TABS,ioos:station:wmo:42047:1,2013-07-03T18:30:00Z,27.8966,-93.5973,4.0,6.094801063,16.2937989,7.19,'11111222,11111222,11111222' 
TABS,ioos:station:wmo:42047:1,2013-07-03T19:00:00Z,27.8966,-93.5973,4.0,6.085926388,32.72362608,7.04,'11111222,11111222,11111222' 
TABS,ioos:station:wmo:42047:1,2013-07-03T19:30:00Z,27.8966,-93.5973,4.0,9.382078661,31.84326452,10.73,'11111222,11111222,11111222' 
TABS,ioos:station:wmo:42047:1,2013-07-03T20:00:00Z,27.8966,-93.5973,4.0,6.867022644,31.42137118,8.16,'11111222,11111222,11111222' 
TABS,ioos:station:wmo:42047:1,2013-07-03T20:30:00Z,27.8966,-93.5973,4.0,6.266011491,36.75987436,7.23,'11111222,11111222,11111222' 
TABS,ioos:station:wmo:42047:1,2013-07-03T21:00:00Z,27.8966,-93.5973,4.0,6.372166037,46.08060597,7.68,'11111222,11111222,11111222' 
TABS,ioos:station:wmo:42047:1,2013-07-03T21:30:00Z,27.8966,-93.5973,4.0,6.025487532,40.08529079,7.05,'11111222,11111222,11111222' 
TABS,ioos:station:wmo:42047:1,2013-07-03T22:00:00Z,27.8966,-93.5973,4.0,5.791459229,35.58338635,6.97,'11111222,11111222,11111222' 
TABS,ioos:station:wmo:42047:1,2013-07-03T22:30:00Z,27.8966,-93.5973,4.0,6.280326425,49.84367336,7.81,'11111222,11111222,11111222' 
TABS,ioos:station:wmo:42047:1,2013-07-03T23:00:00Z,27.8966,-93.5973,4.0,5.883281397,45.4128669,7.18,'11111222,11111222,11111222' 
TABS,ioos:station:wmo:42047:1,2013-07-03T23:30:00Z,27.8966,-93.5973,4.0,5.482089018,43.44753695,7.03,'11111222,11111222,11111222' 
TABS,ioos:station:wmo:42047:1,2013-07-04T00:00:00Z,27.8966,-93.5973,4.0,5.745754955,51.71362475,7.05,'11111222,11111222,11111222' 
TABS,ioos:station:wmo:42047:1,2013-07-04T00:30:00Z,27.8966,-93.5973,4.0,5.399740735,48.75385933,6.72,'11111222,11111222,11111222' 
TABS,ioos:station:wmo:42047:1,2013-07-04T01:00:00Z,27.8966,-93.5973,4.0,5.45838804,55.90200624,6.63,'11111222,11111222,11111222' 
TABS,ioos:station:wmo:42047:1,2013-07-04T01:30:00Z,27.8966,-93.5973,4.0,5.733489339,63.92619427,6.84,'11111222,11111222,11111222' 
TABS,ioos:station:wmo:42047:1,2013-07-04T02:00:00Z,27.8966,-93.5973,4.0,5.89185879,69.53463572,7.33,'11111222,11111222,11111222' 
TABS,ioos:station:wmo:42047:1,2013-07-04T02:30:00Z,27.8966,-93.5973,4.0,5.613599558,72.37160094,7.09,'11111222,11111222,11111222' 
TABS,ioos:station:wmo:42047:1,2013-07-04T03:00:00Z,27.8966,-93.5973,4.0,5.914676661,67.64057256,7.12,'11111222,11111222,11111222' 
TABS,ioos:station:wmo:42047:1,2013-07-04T03:30:00Z,27.8966,-93.5973,4.0,5.770077989,79.31285061,6.76,'11111222,11111222,11111222' 
TABS,ioos:station:wmo:42047:1,2013-07-04T04:00:00Z,27.8966,-93.5973,4.0,6.224805218,78.97849554,7.65,'11111222,11111222,11111222' 
TABS,ioos:station:wmo:42047:1,2013-07-04T04:30:00Z,27.8966,-93.5973,4.0,5.215246878,76.92264774,6.34,'11111222,11111222,11111222' 
TABS,ioos:station:wmo:42047:1,2013-07-04T05:00:00Z,27.8966,-93.5973,4.0,5.251295078,81.23684667,6.16,'11111222,11111222,11111222' 
TABS,ioos:station:wmo:42047:1,2013-07-04T05:30:00Z,27.8966,-93.5973,4.0,5.210239918,81.27851927,6.63,'11111222,11111222,11111222' 
TABS,ioos:station:wmo:42047:1,2013-07-04T06:00:00Z,27.8966,-93.5973,4.0,4.08735856,68.77089764,5.62,'11111222,11111222,11111222' 
TABS,ioos:station:wmo:42047:1,2013-07-04T06:30:00Z,27.8966,-93.5973,4.0,4.695636272,59.11959927,6.08,'11111222,11111222,11111222' 
TABS,ioos:station:wmo:42047:1,2013-07-04T07:00:00Z,27.8966,-93.5973,4.0,4.543797971,63.03984281,6.36,'11111222,11111222,11111222' 
TABS,ioos:station:wmo:42047:1,2013-07-04T07:30:00Z,27.8966,-93.5973,4.0,4.856758178,63.59286489,6.05,'11111222,11111222,11111222' 
TABS,ioos:station:wmo:42047:1,2013-07-04T08:00:00Z,27.8966,-93.5973,4.0,4.522123395,74.61114723,5.54,'11111222,11111222,11111222' 
TABS,ioos:station:wmo:42047:1,2013-07-04T08:30:00Z,27.8966,-93.5973,4.0,3.462383572,80.02038074,4.62,'11111222,11111222,11111222' 
TABS,ioos:station:wmo:42047:1,2013-07-04T09:00:00Z,27.8966,-93.5973,4.0,2.660300735,66.51824331,3.26,'11111222,11111222,11111222' 
TABS,ioos:station:wmo:42047:1,2013-07-04T09:30:00Z,27.8966,-93.5973,4.0,2.462234757,53.9209651,3.0,'11111222,11111222,11111222' 
TABS,ioos:station:wmo:42047:1,2013-07-04T10:00:00Z,27.8966,-93.5973,4.0,1.719680203,55.6627315,2.3,'11111222,11111222,11111222' 
TABS,ioos:station:wmo:42047:1,2013-07-04T10:30:00Z,27.8966,-93.5973,4.0,1.681814496,62.36803898,2.44,'11111222,11111222,11111222' 
TABS,ioos:station:wmo:42047:1,2013-07-04T11:00:00Z,27.8966,-93.5973,4.0,1.803801541,43.42725756,2.49,'11111222,11111222,11111222' 
TABS,ioos:station:wmo:42047:1,2013-07-04T11:30:00Z,27.8966,-93.5973,4.0,1.834475402,41.68510624,2.38,'11111222,11111222,11111222' 
TABS,ioos:station:wmo:42047:1,2013-07-04T12:00:00Z,27.8966,-93.5973,4.0,2.27178344,2.270233903,3.24,'11111222,11111222,11111222' 
TABS,ioos:station:wmo:42047:1,2013-07-04T12:30:00Z,27.8966,-93.5973,4.0,3.047950131,347.8788024,3.58,'11111222,11111222,11111222' 
TABS,ioos:station:wmo:42047:1,2013-07-04T13:00:00Z,27.8966,-93.5973,4.0,3.891554959,358.3800358,4.67,'11111222,11111222,11111222' 
TABS,ioos:station:wmo:42047:1,2013-07-04T13:30:00Z,27.8966,-93.5973,4.0,3.794008434,16.38076922,4.94,'11111222,11111222,11111222' 
TABS,ioos:station:wmo:42047:1,2013-07-04T14:00:00Z,27.8966,-93.5973,4.0,3.909283822,344.1148269,4.85,'11111222,11111222,11111222' 
TABS,ioos:station:wmo:42047:1,2013-07-04T14:30:00Z,27.8966,-93.5973,4.0,3.815783013,3.154625029,4.65,'11111222,11111222,11111222' 
TABS,ioos:station:wmo:42047:1,2013-07-04T15:00:00Z,27.8966,-93.5973,4.0,3.791477285,10.33164453,4.76,'11111222,11111222,11111222' 
TABS,ioos:station:wmo:42047:1,2013-07-04T15:30:00Z,27.8966,-93.5973,4.0,4.562477397,10.2259863,5.6,'11111222,11111222,11111222' 
TABS,ioos:station:wmo:42047:1,2013-07-04T16:00:00Z,27.8966,-93.5973,4.0,3.862084929,17.16792183,4.72,'11111222,11111222,11111222' 
TABS,ioos:station:wmo:42047:1,2013-07-04T16:30:00Z,27.8966,-93.5973,4.0,3.785828839,33.68977829,4.59,'11111222,11111222,11111222' 
TABS,ioos:station:wmo:42047:1,2013-07-04T17:00:00Z,27.8966,-93.5973,4.0,3.886412227,26.10325864,4.82,'11111222,11111222,11111222' 
TABS,ioos:station:wmo:42047:1,2013-07-04T17:30:00Z,27.8966,-93.5973,4.0,4.087077195,11.14473735,5.06,'11111222,11111222,11111222' 
TABS,ioos:station:wmo:42047:1,2013-07-04T18:00:00Z,27.8966,-93.5973,4.0,4.513280403,10.33867591,5.87,'11111222,11111222,11111222' 
TABS,ioos:station:wmo:42047:1,2013-07-04T18:30:00Z,27.8966,-93.5973,4.0,4.79885403,9.717258676,5.72,'11111222,11111222,11111222' 